Weather History for Whidbey Island, WA

Change the Weather History Date:

Wednesday, December 25, 2013

  Actual Average Record
Temperature  
Mean Temperature 39 °F -  
Max Temperature 44 °F 43 °F 54 °F (2010)
Min Temperature 34 °F 33 °F 25 °F (1996)
Degree Days  
Heating Degree Days 26    
Moisture  
Dew Point 33 °F    
Average Humidity 80    
Maximum Humidity 93    
Minimum Humidity 65    
Precipitation  
Precipitation 0.00 in - - ()
Sea Level Pressure  
Sea Level Pressure 30.50 in    
Wind  
Wind Speed 3 mph (ESE)    
Max Wind Speed 9 mph    
Max Gust Speed -    
Visibility 7 miles    
Events Fog    
Averages and records for this station are not official NWS values.
T = Trace of Precipitation, MM = Missing Value Source: NWS Daily Summary

Daily Weather History Graph

Daily Weather History Graph

Search for Another Location

Airport:

Trip Planner

Search our weather history database for the weather conditions in past years. The results will help you decide how hot, cold, wet, or windy it might be!

Date:

Astronomy

Dec. 25, 2013 Rise Set
Actual Time 8:00 AM PST 4:21 PM PST
Civil Twilight 7:24 AM PST 4:57 PM PST
Nautical Twilight 6:44 AM PST 5:37 PM PST
Astronomical Twilight 6:06 AM PST 6:15 PM PST
Moon 12:07 AM PST (12/25) 11:51 AM PST (12/25)
Length of Visible Light 9h 33m
Length of Day
8h 20m
Waning Gibbous, 47% of the Moon is Illuminated
Dec 25
Waning Gibbous
Jan 1
New
Jan 7
First Quarter
Jan 15
Full
Jan 23
Last Quarter

Hourly Weather History & Observations

Time (PST) Temp. Windchill Dew Point Humidity Pressure Visibility Wind Dir Wind Speed Gust Speed Precip Events Conditions
12:16 AM 34.0 °F 31.0 °F 30.0 °F 85% 30.55 in 0.5 mi SE 3.5 mph - N/A Fog Fog
12:33 AM 36.0 °F 32.1 °F 32.0 °F 86% 30.54 in 0.5 mi ESE 4.6 mph - N/A Fog Fog
12:45 AM 35.1 °F - 32.0 °F 89% 30.54 in 0.2 mi Calm Calm - N/A Fog Fog
12:56 AM 35.1 °F - 32.0 °F 89% 30.56 in 0.8 mi Calm Calm - N/A   Mist
1:00 AM 35.1 °F - 32.0 °F 89% 30.54 in 1.2 mi Calm Calm - N/A   Partly Cloudy
1:05 AM 37.0 °F - 32.0 °F 82% 30.54 in 3.0 mi Calm Calm - N/A   Haze
1:12 AM 34.0 °F - 30.9 °F 89% 30.54 in 1.5 mi Calm Calm - N/A   Scattered Clouds
1:26 AM 37.0 °F - 33.1 °F 86% 30.54 in 3.0 mi Calm Calm - N/A   Partly Cloudy
1:50 AM 35.6 °F - 33.8 °F 93% 30.54 in 1.8 mi Calm Calm - N/A   Clear
1:56 AM 37.0 °F - 33.1 °F 86% 30.55 in 1.8 mi Calm Calm - N/A   Clear
2:05 AM 35.1 °F 32.2 °F 32.0 °F 89% 30.53 in 0.5 mi North 3.5 mph - N/A Fog Fog
2:14 AM 37.0 °F - 32.0 °F 82% 30.53 in 1.2 mi Calm Calm - N/A   Haze
2:17 AM 37.0 °F - 33.1 °F 86% 30.53 in 4.0 mi Calm Calm - N/A   Clear
2:56 AM 34.0 °F 31.0 °F 30.9 °F 89% 30.54 in 10.0 mi SE 3.5 mph - N/A   Clear
3:56 AM 34.0 °F 29.8 °F 30.0 °F 85% 30.53 in 10.0 mi SE 4.6 mph - N/A   Clear
4:56 AM 37.0 °F 30.4 °F 30.9 °F 79% 30.52 in 10.0 mi NE 9.2 mph - N/A   Clear
5:56 AM 37.9 °F 32.7 °F 30.9 °F 76% 30.51 in 10.0 mi ENE 6.9 mph - N/A   Partly Cloudy
6:56 AM 37.9 °F 33.5 °F 32.0 °F 79% 30.51 in 10.0 mi NE 5.8 mph - N/A   Overcast
7:56 AM 37.0 °F 33.3 °F 32.0 °F 82% 30.50 in 10.0 mi East 4.6 mph - N/A   Mostly Cloudy
8:56 AM 36.0 °F 31.1 °F 32.0 °F 86% 30.50 in 10.0 mi East 5.8 mph - N/A   Mostly Cloudy
9:56 AM 39.0 °F 35.7 °F 34.0 °F 82% 30.50 in 10.0 mi ESE 4.6 mph - N/A   Overcast
10:56 AM 42.1 °F 40.2 °F 34.0 °F 73% 30.49 in 10.0 mi SSE 3.5 mph - N/A   Overcast
11:56 AM 43.0 °F 39.5 °F 35.1 °F 74% 30.46 in 10.0 mi ESE 5.8 mph - N/A   Overcast
12:56 PM 44.1 °F 42.5 °F 34.0 °F 68% 30.46 in 10.0 mi ESE 3.5 mph - N/A   Overcast
1:56 PM 44.1 °F 42.5 °F 33.1 °F 65% 30.45 in 10.0 mi ESE 3.5 mph - N/A   Overcast
2:56 PM 44.1 °F - 35.1 °F 71% 30.45 in 10.0 mi Calm Calm - N/A   Overcast
3:56 PM 43.0 °F 40.3 °F 34.0 °F 71% 30.45 in 10.0 mi ESE 4.6 mph - N/A   Overcast
4:56 PM 41.0 °F 38.0 °F 33.1 °F 73% 30.44 in 10.0 mi East 4.6 mph - N/A   Mostly Cloudy
5:56 PM 43.0 °F - 34.0 °F 71% 30.45 in 10.0 mi Calm Calm - N/A   Overcast
6:56 PM 43.0 °F 40.3 °F 35.1 °F 74% 30.44 in 10.0 mi ESE 4.6 mph - N/A   Overcast
7:56 PM 43.0 °F 41.3 °F 35.1 °F 74% 30.45 in 10.0 mi ESE 3.5 mph - N/A   Overcast
8:56 PM 43.0 °F 39.5 °F 35.1 °F 74% 30.43 in 10.0 mi East 5.8 mph - N/A   Overcast
9:56 PM 43.0 °F 38.2 °F 35.1 °F 74% 30.43 in 10.0 mi East 8.1 mph - N/A   Overcast
10:56 PM 43.0 °F 40.3 °F 35.1 °F 74% 30.43 in 10.0 mi ESE 4.6 mph - N/A   Overcast
11:56 PM 43.0 °F 39.5 °F 37.0 °F 80% 30.42 in 10.0 mi ESE 5.8 mph - N/A   Overcast